Saskatoon John G. Diefenbaker International Airport

Jump to: basic info | weather | frequencies | runways | comments

Related pages: nearby airports | nearby navaids | notams | map

Basic information (top)

Codes: YXE CYXE
Location: lon 52.170799, lat -106.699997, elev 1,653 ft / 504 m msl
Status: medium_airport
Scheduled airline service: yes
Links: Wikipedia Mobile

Weather (top)

Current conditions (rec'd 2014/12/17 21:00Z):

CYXE 172100Z 18008KT 15SM OVC009 M08/M10 A3004 RMK SC8 SLP209

Airport forecast (rec'd 2014/12/17 18:39Z):

TAF CYXE 171738Z 1718/1818 16012KT P6SM OVC008 
      TEMPO 1718/1724 4SM BR OVC005 
     FM180000 16010KT P6SM OVC020 
      TEMPO 1800/1818 5SM BR OVC006 
      RMK NXT FCST BY 180000Z

Frequencies (top)

Verify before use: may be inaccurate or out of date.

A/D: 119.9 MHz (APP/DEP)
A/G: 118.3 MHz (MF SASKATOON RDO)
ATIS: 128.4 MHz (ATIS)
CNTR: 134.325 MHz (WINNIPEG CNTR)
GND: 121.9 MHz (GND)
RCO: 122.5 MHz (EDMONTON RDO)
TWR: 118.3 MHz (TWR)

Runways (top)

09/27: 8,300 x 200 ft (2,530 x 61 m) — paved — lighted

15/33: 6,200 x 150 ft (1,890 x 46 m) — paved — lighted

Latest comments (top)

Timmies: Timmies in the main terminal. Park at ... [read]

More... (top)

See also NOTAMs and nearby airports and navaids, or visit the Saskatoon John G. Diefenbaker International Airport page at the main OurAirports website..